Погода в Джебарики-Хая

Россия / Республика Саха (Якутия)     62°13′01″N   135°51′49″E
темп.,
°C
ветер,
м/с
пор.,
м/с
влажн.,
%
обл.,
%
осадки,
мм/ч
давл.,
гПа
погр.,
м
27 февраля, сб
сб2700:00−34ссз00950 0.0 103419
03:00−35в11960 0.0 103219
06:00−36св11950 0.0 103219
09:00−32в11930 0.0 103053
12:00−26св12860 0.0 1028275
15:00−25св23891 0.0 1025300
18:00−29ссв22930 0.0 102422
21:00−31ссв22920 0.0 102121
28 февраля, вс
вс2800:00−30с229222 0.0 101919
03:00−30ссв228858 0.0 101623
06:00−29ссв1282100 0.0 101619
09:00−24зюз1179100 0.0 101635
12:00−19вюв1180100 0.0 1017225
15:00−18ююз248766 0.0 1017435
18:00−22ююз229996 0.0 102033
21:00−24зюз239798 0.1 102298
1 марта, пн
пн100:00−26ююз2497100 0.0 1023126
03:00−28ююз2298100 0.0 102445
06:00−28ююз1299100 0.1 102530
09:00−27зюз1296100 0.1 1025177
12:00−25юз2286100 0.1 1025665
15:00−25з1287100 0.1 1025759
18:00−28зсз1195100 0.0 102619
21:00−30зсз1198100 0.1 102719
2 марта, вт
вт200:00−32зсз119896 0.0 102619
03:00−33зюз119997 0.0 102619
06:00−33з1198100 0.0 102619
09:00−30зюз0196100 0.1 1025142
12:00−27з1190100 0.0 1024454
15:00−26зсз1189100 0.2 1024557
18:00−28сз0198100 0.1 102519
21:00−29ссз0198100 0.1 102619
3 марта, ср
ср300:00−29ссз0098100 0.1 102519
03:00−29с0099100 0.1 102519
06:00−29ссз0098100 0.1 102419
09:00−28ссз0195100 0.1 1023180
12:00−25ссз1187100 0.0 1020589
15:00−25ссз1183100 0.1 1019789
18:00−30с1197100 0.0 101819
21:00−32зсз1199100 0.1 101719